Bloomington, IL

5:32 PM CDT on May 25, 2017 (GMT -0500)
Central Ill Regional

Weather History for KBMI - January, 2014

Change the Weather History Date:

Thursday, January 9, 2014

  Actual Average Record
Temperature  
Mean Temperature 18 °F -  
Max Temperature 28 °F 14 °F 50 °F (2002)
Min Temperature 8 °F -4 °F -6 °F (1976)
Degree Days  
Heating Degree Days 47    
Moisture  
Dew Point 17 °F    
Average Humidity 86    
Maximum Humidity 96    
Minimum Humidity 73    
Precipitation  
Precipitation 0.00 in - - ()
Sea Level Pressure  
Sea Level Pressure 30.36 in    
Wind  
Wind Speed 11 mph (SE)    
Max Wind Speed 14 mph    
Max Gust Speed -    
Visibility 5 miles    
Events Snow    
Averages and records for this station are not official NWS values.
T = Trace of Precipitation, MM = Missing Value Source: NWS Daily Summary

Daily Weather History Graph

Daily Weather History Graph

Search for Another Location

Airport or City:

Trip Planner

Search our weather history database for the weather conditions in past years. The results will help you decide how hot, cold, wet, or windy it might be!

Date:

Astronomy

Jan. 09, 2014 Rise Set
Actual Time 7:18 AM CST 4:47 PM CST
Civil Twilight 6:48 AM CST 5:17 PM CST
Nautical Twilight 6:14 AM CST 5:51 PM CST
Astronomical Twilight 5:41 AM CST 6:24 PM CST
Moon 12:14 PM CST (1/9) 1:25 AM CST (1/9)
Length of Visible Light 10h 29m
Length of Day
9h 28m
Waxing Gibbous, 66% of the Moon is Illuminated
Jan 9
Waxing Gibbous
Jan 15
Full
Jan 23
Last Quarter
Jan 30
New
Feb 6
First Quarter

Hourly Weather History & Observations

Time (CST) Temp. Windchill Dew Point Humidity Pressure Visibility Wind Dir Wind Speed Gust Speed Precip Events Conditions
12:49 AM 10.4 °F -4.1 °F 3.2 °F 73% 30.47 in 10.0 mi ENE 11.5 mph - N/A   Overcast
12:56 AM 10.0 °F -4.5 °F 3.0 °F 73% 30.57 in 10.0 mi ENE 11.5 mph - N/A   Overcast
1:21 AM 10.4 °F -3.3 °F 3.2 °F 73% 30.47 in 10.0 mi East 10.4 mph - N/A   Overcast
1:56 AM 10.0 °F -3.7 °F 3.0 °F 73% 30.57 in 10.0 mi East 10.4 mph - N/A   Overcast
2:56 AM 10.0 °F -3.7 °F 4.1 °F 77% 30.56 in 10.0 mi ENE 10.4 mph - N/A   Overcast
3:22 AM 10.4 °F -3.3 °F 3.2 °F 73% 30.45 in 10.0 mi ENE 10.4 mph - N/A   Overcast
3:56 AM 10.0 °F -3.7 °F 4.1 °F 77% 30.54 in 10.0 mi ENE 10.4 mph - N/A   Mostly Cloudy
4:56 AM 8.1 °F -4.3 °F 3.0 °F 80% 30.53 in 10.0 mi East 8.1 mph - N/A   Partly Cloudy
5:56 AM 10.0 °F -2.9 °F 5.0 °F 80% 30.52 in 10.0 mi East 9.2 mph - N/A   Partly Cloudy
6:56 AM 13.1 °F 0.9 °F 8.1 °F 80% 30.51 in 10.0 mi ESE 9.2 mph - N/A   Mostly Cloudy
7:56 AM 14.0 °F 0.5 °F 9.1 °F 81% 30.50 in 10.0 mi ESE 11.5 mph - N/A   Clear
8:56 AM 16.2 °F 3.2 °F 12.0 °F 84% 30.48 in 9.0 mi ESE 11.5 mph - 0.00 in   Partly Cloudy
9:56 AM 18.1 °F 7.1 °F 14.0 °F 84% 30.47 in 8.0 mi SE 9.2 mph - 0.00 in   Overcast
10:36 AM 19.4 °F 8.6 °F 15.8 °F 86% 30.37 in 2.0 mi SSE 9.2 mph - 0.00 in Snow Light Snow
10:56 AM 20.1 °F 9.5 °F 17.1 °F 88% 30.45 in 3.0 mi SSE 9.2 mph - 0.00 in Snow Light Snow
11:05 AM 19.4 °F 6.0 °F 17.6 °F 93% 30.35 in 3.0 mi SSE 13.8 mph - 0.00 in Snow Light Snow
11:12 AM 21.2 °F 8.9 °F 17.6 °F 86% 30.35 in 1.8 mi SSE 12.7 mph - 0.00 in Snow Light Snow
11:16 AM 21.2 °F 8.3 °F 17.6 °F 86% 30.34 in 1.2 mi SSE 13.8 mph - 0.00 in Snow Light Snow
11:56 AM 21.0 °F 11.4 °F 18.1 °F 89% 30.40 in 1.2 mi SSE 8.1 mph - 0.00 in Snow Light Snow
11:58 AM 21.2 °F 10.1 °F 17.6 °F 86% 30.31 in 1.0 mi SSE 10.4 mph - 0.00 in Snow Light Snow
12:30 PM 23.0 °F 13.1 °F 19.4 °F 86% 30.29 in 2.5 mi SE 9.2 mph - 0.00 in Snow Light Snow
12:33 PM 23.0 °F 13.1 °F 19.4 °F 86% 30.29 in 1.5 mi SSE 9.2 mph - 0.00 in   Overcast
12:56 PM 23.0 °F 12.4 °F 20.1 °F 89% 30.36 in 1.2 mi SE 10.4 mph - 0.00 in Snow Light Snow
1:16 PM 23.0 °F 13.9 °F 21.2 °F 93% 30.27 in 4.0 mi SE 8.1 mph - 0.00 in Snow Light Snow
1:56 PM 23.0 °F 13.9 °F 21.0 °F 92% 30.34 in 4.0 mi ESE 8.1 mph - 0.00 in Snow Light Snow
2:56 PM 24.1 °F 13.7 °F 21.0 °F 88% 30.33 in 6.0 mi SE 10.4 mph - 0.00 in   Overcast
3:56 PM 24.1 °F 13.7 °F 22.1 °F 92% 30.32 in 2.5 mi SE 10.4 mph - 0.00 in Snow Light Snow
5:56 PM 25.2 °F 13.9 °F 23.0 °F 91% 30.30 in 2.0 mi SSE 12.7 mph - 0.00 in   Overcast
6:03 PM 24.8 °F 12.9 °F 23.0 °F 93% 30.22 in 3.0 mi SSE 13.8 mph - N/A   Overcast
6:27 PM 24.8 °F 12.9 °F 23.0 °F 93% 30.21 in 3.0 mi SSE 13.8 mph - N/A   Overcast
6:46 PM 26.6 °F 15.7 °F 24.8 °F 93% 30.21 in 3.0 mi SSE 12.7 mph - N/A   Overcast
6:56 PM 26.1 °F 15.0 °F 24.1 °F 92% 30.29 in 3.0 mi SSE 12.7 mph - N/A   Overcast
7:56 PM 27.1 °F 15.9 °F 25.2 °F 92% 30.27 in 4.0 mi South 13.8 mph - N/A   Overcast
8:56 PM 27.1 °F 16.9 °F 26.1 °F 96% 30.26 in 4.0 mi South 11.5 mph - N/A   Overcast
9:15 PM 28.4 °F 17.5 °F 26.6 °F 93% 30.18 in 2.5 mi South 13.8 mph - N/A   Overcast
9:56 PM 28.0 °F 17.0 °F 27.1 °F 96% 30.24 in 1.8 mi South 13.8 mph - N/A   Overcast
10:56 PM 28.0 °F 17.5 °F 27.1 °F 96% 30.22 in 1.8 mi South 12.7 mph - N/A   Overcast
11:12 PM 28.4 °F 18.5 °F 26.6 °F 93% 30.16 in 2.0 mi South 11.5 mph - N/A   Overcast
11:56 PM 28.0 °F 18.6 °F 27.1 °F 96% 30.21 in 2.5 mi SSW 10.4 mph - N/A   Overcast